Location: Little Ridge
(33.0629°N, 96.4547°W)
Time: 22:56:32
(UTC+00:00)

ISS - Visible Passes

Search period start: 26 November 2022 00:00
Search period end: 06 December 2022 00:00
Orbit: 411 x 421 km, 51.6° (Epoch: 26 November)

Date Brightness Start Highest point End Pass type
(mag) Time Alt. Az. Time Alt. Az. Time Alt. Az.
04 Dec -1.6 00:38:58 10° N 00:39:57 14° N 00:39:57 14° N visible
04 Dec -1.6 23:51:08 10° N 23:52:17 11° NNE 23:53:28 10° NE visible
05 Dec -1.0 01:26:05 10° NW 01:26:42 15° NW 01:26:42 15° NW visible
